| time (UTC) | temp C | wind direction | speed KPH | gust KPH | rain 1hr cm | rain 24hr cm | rain mn cm | humidity % | barometer mb |
| 20260504231512 | 15 | 213 | 6.4 | 11.3 | 0.00 | 0.00 | 0.00 | 53 | 1004.9 |
| 20260504230013 | 17 | 209 | 4.8 | 11.3 | 0.00 | 0.00 | 0.00 | 48 | 1004.6 |
| 20260504224511 | 20 | 306 | 1.6 | 9.7 | 0.00 | 0.00 | 0.00 | 37 | 1004.5 |
| 20260504223012 | 20 | 337 | 3.2 | 11.3 | 0.00 | 0.00 | 0.00 | 37 | 1004.3 |
| 20260504221520 | 20 | 17 | 1.6 | 6.4 | 0.00 | 0.00 | 0.00 | 36 | 1004.3 |
| 20260504220009 | 20 | 334 | 6.4 | 17.7 | 0.00 | 0.00 | 0.00 | 36 | 1004.3 |
| 20260504214508 | 20 | 15 | 1.6 | 9.7 | 0.00 | 0.00 | 0.00 | 37 | 1004.4 |
| 20260504213008 | 21 | 326 | 4.8 | 16.1 | 0.00 | 0.00 | 0.00 | 36 | 1004.4 |
| 20260504211506 | 21 | 38 | 9.7 | 22.5 | 0.00 | 0.00 | 0.00 | 37 | 1004.3 |
| 20260504210004 | 20 | 346 | 6.4 | 16.1 | 0.00 | 0.00 | 0.00 | 37 | 1004.2 |
| 20260504204502 | 20 | 355 | 1.6 | 16.1 | 0.00 | 0.00 | 0.00 | 39 | 1004.3 |
| 20260504203001 | 20 | 302 | 3.2 | 20.9 | 0.00 | 0.00 | 0.00 | 42 | 1004.4 |
| 20260504201600 | 20 | 304 | 1.6 | 16.1 | 0.00 | 0.00 | 0.00 | 42 | 1004.5 |
| 20260504194559 | 20 | 329 | 4.8 | 19.3 | 0.00 | 0.00 | 0.00 | 41 | 1004.6 |
| 20260504193100 | 18 | 72 | 9.7 | 22.5 | 0.00 | 0.00 | 0.00 | 43 | 1004.6 |
| 20260504191550 | 17 | 311 | 1.6 | 8.0 | 0.00 | 0.00 | 0.00 | 52 | 1004.7 |
| 20260504190050 | 17 | 94 | 0.0 | 4.8 | 0.00 | 0.00 | 0.00 | 55 | 1004.8 |
| 20260504184549 | 16 | 176 | 0.0 | 3.2 | 0.00 | 0.00 | 0.00 | 56 | 1005.0 |
| 20260504183047 | 17 | 33 | 0.0 | 4.8 | 0.00 | 0.00 | 0.00 | 52 | 1005.0 |
| 20260504181549 | 17 | 119 | 1.6 | 12.9 | 0.00 | 0.00 | 0.00 | 44 | 1004.9 |
| 20260504180050 | 17 | 11 | 8.0 | 22.5 | 0.00 | 0.00 | 0.00 | 42 | 1004.8 |
| 20260504174547 | 17 | 348 | 6.4 | 19.3 | 0.00 | 0.00 | 0.00 | 42 | 1004.9 |
| 20260504173045 | 17 | 348 | 6.4 | 17.7 | 0.00 | 0.00 | 0.00 | 41 | 1005.0 |
| 20260504171545 | 17 | 338 | 16.1 | 33.8 | 0.00 | 0.00 | 0.00 | 38 | 1004.6 |
| 20260504081511 | 2 | 25 | 0.0 | 3.2 | 0.00 | 0.03 | 0.00 | 74 | 1007.4 |
| 20260504044551 | 2 | 323 | 0.0 | 0.0 | 0.00 | 0.03 | 0.00 | 74 | 1007.2 |
| 20260504043049 | 2 | 323 | 0.0 | 0.0 | 0.00 | 0.03 | 0.00 | 73 | 1007.1 |
| 20260504041545 | 3 | 324 | 0.0 | 0.0 | 0.00 | 0.03 | 0.00 | 71 | 1007.2 |
| 20260504040100 | 3 | 322 | 0.0 | 0.0 | 0.00 | 0.03 | 0.00 | 71 | 1007.1 |
| 20260504034540 | 4 | 322 | 0.0 | 3.2 | 0.00 | 0.03 | 0.03 | 70 | 1007.0 |
| 20260504033035 | 5 | 322 | 0.0 | 8.0 | 0.00 | 0.03 | 0.03 | 67 | 1006.9 |
| 20260504031529 | 5 | 33 | 0.0 | 3.2 | 0.00 | 0.03 | 0.03 | 67 | 1006.9 |
| 20260504030025 | 5 | 33 | 0.0 | 3.2 | 0.00 | 0.03 | 0.03 | 66 | 1006.9 |
| 20260504024522 | 5 | 34 | 0.0 | 3.2 | 0.00 | 0.03 | 0.03 | 65 | 1006.9 |
| 20260504023017 | 5 | 343 | 0.0 | 4.8 | 0.00 | 0.03 | 0.03 | 66 | 1007.0 |
| 20260504021512 | 5 | 350 | 1.6 | 4.8 | 0.00 | 0.03 | 0.03 | 67 | 1006.9 |
| 20260504020010 | 5 | 321 | 0.0 | 3.2 | 0.00 | 0.03 | 0.03 | 66 | 1006.7 |
| 20260504014511 | 6 | 15 | 0.0 | 8.0 | 0.00 | 0.18 | 0.03 | 65 | 1006.7 |
| 20260504013108 | 6 | 355 | 0.0 | 6.4 | 0.00 | 0.18 | 0.03 | 63 | 1006.6 |
| 20260504011555 | 6 | 32 | 0.0 | 3.2 | 0.00 | 0.18 | 0.03 | 62 | 1006.4 |
| 20260504010054 | 7 | 84 | 0.0 | 9.7 | 0.00 | 0.18 | 0.03 | 60 | 1006.2 |
| 20260504004552 | 7 | 5 | 0.0 | 9.7 | 0.00 | 0.18 | 0.03 | 59 | 1006.0 |
| 20260504003058 | 7 | 355 | 0.0 | 6.4 | 0.00 | 0.18 | 0.03 | 59 | 1005.7 |
| 20260504001602 | 7 | 23 | 0.0 | 14.5 | 0.00 | 0.18 | 0.03 | 57 | 1005.5 |
| 20260504000047 | 8 | 5 | 0.0 | 8.0 | 0.00 | 0.18 | 0.03 | 54 | 1005.2 |
| 20260503234540 | 8 | 71 | 1.6 | 16.1 | 0.00 | 0.18 | 0.03 | 51 | 1004.9 |
| 20260503233041 | 8 | 147 | 1.6 | 12.9 | 0.00 | 0.18 | 0.03 | 51 | 1004.7 |